{"data":{"norad_id":66128,"epoch":"2026-09-20T21:33:53.419680Z","epoch_age_seconds":66014,"freshness":"FRESH","line1":"1 66128U 25237Q   26263.89853495  .00008588  00000+0  26522-3 0  9990","line2":"2 66128  53.1551 211.7824 0001256  90.7364 269.3783 15.34375807 52517","mean_motion":15.34375807,"eccentricity":0.0001256,"inclination_deg":53.1551,"raan_deg":211.7824,"arg_perigee_deg":90.7364,"mean_anomaly_deg":269.3783,"bstar":0.00026522,"rev_number":5251,"period_min":93.849237809313,"perigee_km":461.91592928059,"apogee_km":463.63436641213,"semimajor_km":6840.9121478464,"source":"CELESTRAK","updated_at":"2026-09-21T09:00:35.809211Z"}}